SWR2CX LSZH-LSGG

Flight info

Callsign SWR2CX
Flight time 0h 30m
Altitude 18000
Route VEBIT T50 ROTOS Z669 ULMES
Aircraft A321/M-SDE3FGHIRWY/LB1

Departure

Time 2026-02-18 14:53
Airport Zürich Airport (LSZH)

Arrival

Time 2026-02-18 15:24
Airport Geneva International Airport (LSGG)
Time Latitude Longitude Altitude Speed Heading
2026-02-18 14:35 47.44835 8.55874 1403 ft 0 kts 245°
2026-02-18 14:46 47.44835 8.55872 1397 ft 2 kts 245°
2026-02-18 14:47 47.44819 8.55824 1400 ft 8 kts 245°
2026-02-18 14:47 47.44832 8.55762 1401 ft 7 kts 318°
2026-02-18 14:47 47.44881 8.55723 1406 ft 9 kts 333°
2026-02-18 14:47 47.44945 8.55676 1407 ft 11 kts 334°
2026-02-18 14:48 47.45013 8.55637 1406 ft 11 kts 336°
2026-02-18 14:48 47.45079 8.55591 1405 ft 9 kts 334°
2026-02-18 14:48 47.45127 8.55556 1404 ft 9 kts 334°
2026-02-18 14:48 47.45192 8.55512 1407 ft 12 kts 336°
2026-02-18 14:49 47.45417 8.55358 1408 ft 23 kts 334°
2026-02-18 14:49 47.45570 8.55253 1402 ft 25 kts 335°
2026-02-18 14:49 47.45723 8.55146 1401 ft 26 kts 333°
2026-02-18 14:50 47.45889 8.55030 1400 ft 25 kts 334°
2026-02-18 14:50 47.46044 8.54924 1388 ft 24 kts 336°
2026-02-18 14:50 47.46187 8.54824 1388 ft 21 kts 334°
2026-02-18 14:50 47.46310 8.54736 1382 ft 20 kts 335°
2026-02-18 14:51 47.46458 8.54634 1386 ft 26 kts 335°
2026-02-18 14:51 47.46629 8.54520 1384 ft 27 kts 334°
2026-02-18 14:51 47.46799 8.54414 1380 ft 26 kts 342°
2026-02-18 14:51 47.46949 8.54305 1383 ft 24 kts 321°
2026-02-18 14:52 47.47025 8.54131 1383 ft 17 kts 269°
2026-02-18 14:52 47.46991 8.54015 1384 ft 10 kts 219°
2026-02-18 14:52 47.46924 8.54040 1381 ft 11 kts 155°
2026-02-18 14:52 47.46804 8.54124 1380 ft 42 kts 155°
2026-02-18 14:53 47.45478 8.55041 1400 ft 157 kts 154°
2026-02-18 14:53 47.44421 8.55754 1810 ft 167 kts 155°
2026-02-18 14:53 47.43374 8.56471 2625 ft 165 kts 154°
2026-02-18 14:54 47.42300 8.57194 3023 ft 178 kts 150°
2026-02-18 14:54 47.41391 8.58556 3190 ft 199 kts 119°
2026-02-18 14:54 47.41132 8.60637 3404 ft 219 kts 83°
2026-02-18 14:54 47.41789 8.62682 3856 ft 228 kts 46°
2026-02-18 14:55 47.43177 8.63773 4292 ft 231 kts
2026-02-18 14:55 47.44704 8.63396 4770 ft 225 kts 325°
2026-02-18 14:55 47.45747 8.61807 5297 ft 213 kts 288°
2026-02-18 14:55 47.45981 8.59724 6114 ft 199 kts 262°
2026-02-18 14:56 47.45876 8.57743 6910 ft 195 kts 262°
2026-02-18 14:56 47.45775 8.55742 7549 ft 196 kts 263°
2026-02-18 14:56 47.45671 8.53714 8133 ft 201 kts 264°
2026-02-18 14:56 47.45560 8.51552 8370 ft 221 kts 264°
2026-02-18 14:57 47.44669 8.46970 9170 ft 252 kts 239°
2026-02-18 14:57 47.43665 8.44809 9833 ft 257 kts 239°
2026-02-18 14:57 47.42635 8.42569 10262 ft 274 kts 239°
2026-02-18 14:58 47.41521 8.40133 10451 ft 297 kts 239°
2026-02-18 14:58 47.40328 8.37536 10846 ft 311 kts 239°
2026-02-18 14:58 47.39106 8.34874 11498 ft 316 kts 240°
2026-02-18 14:58 47.38047 8.32015 12223 ft 319 kts 244°
2026-02-18 14:59 47.37009 8.29091 12893 ft 324 kts 244°
2026-02-18 14:59 47.35955 8.26127 13592 ft 328 kts 244°
2026-02-18 14:59 47.34892 8.23132 14217 ft 332 kts 244°
2026-02-18 14:59 47.33814 8.20101 14879 ft 335 kts 244°
2026-02-18 15:00 47.32730 8.17059 15569 ft 336 kts 244°
2026-02-18 15:00 47.31634 8.13994 16221 ft 339 kts 244°
2026-02-18 15:00 47.30532 8.10904 16906 ft 341 kts 245°
2026-02-18 15:00 47.29427 8.07802 17564 ft 344 kts 245°
2026-02-18 15:01 47.27188 8.01511 18710 ft 349 kts 245°
2026-02-18 15:01 47.26203 7.98252 19215 ft 350 kts 250°
2026-02-18 15:01 47.25280 7.94925 19712 ft 352 kts 250°
2026-02-18 15:02 47.24351 7.91595 19860 ft 352 kts 250°
2026-02-18 15:02 47.23429 7.88299 19891 ft 347 kts 250°
2026-02-18 15:02 47.22513 7.85031 19893 ft 345 kts 250°
2026-02-18 15:02 47.21596 7.81769 19893 ft 344 kts 250°
2026-02-18 15:03 47.19767 7.75260 19887 ft 344 kts 250°
2026-02-18 15:03 47.18697 7.72107 19888 ft 347 kts 241°
2026-02-18 15:03 47.17241 7.69248 19888 ft 350 kts 235°
2026-02-18 15:04 47.15719 7.66450 19888 ft 350 kts 235°
2026-02-18 15:04 47.14204 7.63654 19887 ft 350 kts 236°
2026-02-18 15:04 47.12694 7.60860 19873 ft 350 kts 236°
2026-02-18 15:04 47.11181 7.58058 19866 ft 350 kts 236°
2026-02-18 15:05 47.08161 7.52461 19866 ft 350 kts 236°
2026-02-18 15:05 47.06637 7.49654 19836 ft 350 kts 235°
2026-02-18 15:05 47.05116 7.46862 19836 ft 350 kts 235°
2026-02-18 15:06 47.03597 7.44076 19835 ft 350 kts 236°
2026-02-18 15:06 47.02080 7.41294 19835 ft 350 kts 235°
2026-02-18 15:06 47.00553 7.38498 19838 ft 350 kts 235°
2026-02-18 15:06 46.99033 7.35720 19843 ft 350 kts 235°
2026-02-18 15:07 46.97510 7.32940 19847 ft 350 kts 235°
2026-02-18 15:07 46.96005 7.30195 19850 ft 350 kts 235°
2026-02-18 15:07 46.94483 7.27422 19834 ft 349 kts 235°
2026-02-18 15:07 46.92982 7.24687 19603 ft 340 kts 236°
2026-02-18 15:08 46.91516 7.22017 19314 ft 333 kts 235°
2026-02-18 15:08 46.90078 7.19397 18936 ft 329 kts 235°
2026-02-18 15:08 46.88650 7.16797 18543 ft 326 kts 235°
2026-02-18 15:08 46.87242 7.14228 18149 ft 323 kts 234°
2026-02-18 15:09 46.84459 7.09160 17329 ft 315 kts 234°
2026-02-18 15:09 46.83094 7.06693 16959 ft 310 kts 234°
2026-02-18 15:09 46.81747 7.04262 16609 ft 306 kts 234°
2026-02-18 15:10 46.80415 7.01855 16244 ft 303 kts 234°
2026-02-18 15:10 46.79099 6.99477 15868 ft 300 kts 234°
2026-02-18 15:10 46.77798 6.97127 15498 ft 297 kts 234°
2026-02-18 15:10 46.76504 6.94789 15133 ft 294 kts 234°
2026-02-18 15:11 46.75228 6.92482 14760 ft 291 kts 234°
2026-02-18 15:11 46.73959 6.90190 14399 ft 289 kts 233°
2026-02-18 15:11 46.72699 6.87917 14050 ft 287 kts 233°
2026-02-18 15:11 46.71448 6.85663 13693 ft 286 kts 233°
2026-02-18 15:12 46.70201 6.83419 13308 ft 283 kts 233°
2026-02-18 15:12 46.68982 6.81232 12946 ft 279 kts 233°
2026-02-18 15:12 46.67750 6.79026 12595 ft 276 kts 233°
2026-02-18 15:12 46.66548 6.76870 12243 ft 272 kts 233°
2026-02-18 15:13 46.64156 6.72723 11567 ft 267 kts 231°
2026-02-18 15:13 46.62902 6.70687 11218 ft 266 kts 231°
2026-02-18 15:13 46.61672 6.68714 10876 ft 265 kts 230°
2026-02-18 15:14 46.60436 6.66735 10537 ft 264 kts 230°
2026-02-18 15:14 46.59212 6.64766 10210 ft 262 kts 231°
2026-02-18 15:14 46.57997 6.62806 10068 ft 260 kts 231°
2026-02-18 15:14 46.56785 6.60843 9966 ft 261 kts 231°
2026-02-18 15:15 46.55574 6.58876 9843 ft 262 kts 231°
2026-02-18 15:15 46.54750 6.57539 9639 ft 264 kts 231°
2026-02-18 15:15 46.53109 6.54883 9058 ft 263 kts 230°
2026-02-18 15:15 46.51898 6.52931 8423 ft 258 kts 230°
2026-02-18 15:16 46.50702 6.51005 7814 ft 253 kts 229°
2026-02-18 15:16 46.49926 6.49755 7644 ft 241 kts 229°
2026-02-18 15:16 46.48843 6.48010 7511 ft 227 kts 229°
2026-02-18 15:16 46.47820 6.46360 7424 ft 212 kts 229°
2026-02-18 15:17 46.45892 6.43327 7155 ft 202 kts 227°
2026-02-18 15:17 46.44870 6.41928 6983 ft 202 kts 225°
2026-02-18 15:17 46.43875 6.40521 6733 ft 199 kts 226°
2026-02-18 15:18 46.42908 6.39102 6480 ft 197 kts 226°
2026-02-18 15:18 46.41946 6.37677 6226 ft 198 kts 226°
2026-02-18 15:18 46.40984 6.36252 5948 ft 197 kts 226°
2026-02-18 15:18 46.40041 6.34853 5684 ft 192 kts 225°
2026-02-18 15:19 46.39125 6.33496 5416 ft 184 kts 225°
2026-02-18 15:19 46.38255 6.32207 5157 ft 174 kts 224°
2026-02-18 15:19 46.37420 6.30971 4931 ft 171 kts 224°
2026-02-18 15:19 46.36592 6.29745 4705 ft 170 kts 224°
2026-02-18 15:20 46.35766 6.28524 4462 ft 168 kts 223°
2026-02-18 15:20 46.34968 6.27343 4254 ft 160 kts 223°
2026-02-18 15:20 46.34219 6.26236 4034 ft 147 kts 223°
2026-02-18 15:20 46.33519 6.25202 3825 ft 141 kts 223°
2026-02-18 15:21 46.32160 6.23200 3383 ft 142 kts 224°
2026-02-18 15:21 46.31469 6.22174 3204 ft 143 kts 224°
2026-02-18 15:21 46.30775 6.21146 3041 ft 142 kts 224°
2026-02-18 15:22 46.30084 6.20136 2879 ft 140 kts 225°
2026-02-18 15:22 46.29402 6.19125 2666 ft 140 kts 224°
2026-02-18 15:22 46.28713 6.18116 2473 ft 144 kts 225°
2026-02-18 15:22 46.28000 6.17069 2258 ft 149 kts 226°
2026-02-18 15:23 46.27277 6.15992 2041 ft 150 kts 226°
2026-02-18 15:23 46.26546 6.14924 1852 ft 148 kts 226°
2026-02-18 15:23 46.25828 6.13868 1668 ft 145 kts 227°
2026-02-18 15:23 46.25126 6.12828 1447 ft 144 kts 226°
2026-02-18 15:24 46.24452 6.11840 1372 ft 126 kts 225°
2026-02-18 15:24 46.23983 6.11155 1376 ft 69 kts 225°
2026-02-18 15:24 46.23755 6.10832 1379 ft 30 kts 216°
2026-02-18 15:24 46.23571 6.10717 1383 ft 25 kts 195°
2026-02-18 15:25 46.23486 6.10684 1387 ft 1 kts 195°
2026-02-18 15:25 46.23473 6.10679 1388 ft 0 kts 195°
2026-02-18 15:25 46.23460 6.10674 1390 ft 6 kts 194°
2026-02-18 15:26 46.23426 6.10686 1399 ft 5 kts 135°
2026-02-18 15:26 46.23391 6.10741 1396 ft 11 kts 134°
2026-02-18 15:26 46.23319 6.10803 1398 ft 12 kts 180°
2026-02-18 15:26 46.23244 6.10767 1402 ft 11 kts 208°
2026-02-18 15:27 46.23203 6.10713 1404 ft 6 kts 226°
2026-02-18 15:27 46.23176 6.10716 1399 ft 4 kts 145°
2026-02-18 15:27 46.23160 6.10735 1400 ft 2 kts 139°
2026-02-18 15:27 46.23155 6.10742 1397 ft 1 kts 138°
2026-02-18 15:28 46.23152 6.10745 1396 ft 0 kts 138°
2026-02-18 15:28 46.23152 6.10746 1396 ft 0 kts 137°